{"data":{"norad_id":52561,"intl_designator":"2022-051AE","name":"STARLINK-3955","alt_names":[],"object_type":"PAYLOAD","status":"ACTIVE","operator":null,"country":"US","launch_date":"2022-05-13","launch_site_code":"AFWTR","launch_vehicle":null,"mission":null,"orbit_class":"UNKNOWN","rcs_meters":null,"size_class":null,"mass_kg":null,"dimensions":null,"purposes":["comms"],"wikipedia_slug":null,"has_3d_model":false,"image_url":null,"decayed_at":null,"tle_current":{"epoch":"2026-09-19T17:04:00.818976Z","epoch_age_seconds":131520,"freshness":"FRESH","line1":"1 52561U 22051AE  26262.71112059  .00002843  00000+0  95274-4 0  9990","line2":"2 52561  53.1615 329.1133 0001076  53.4656 306.6446 15.34386103240859","mean_motion":15.34386103,"eccentricity":0.0001076,"inclination_deg":53.1615,"raan_deg":329.1133,"arg_perigee_deg":53.4656,"mean_anomaly_deg":306.6446,"bstar":9.5274e-5,"rev_number":24085,"period_min":93.848608064459,"perigee_km":462.00846647724,"apogee_km":463.48062418579,"semimajor_km":6840.8815453315,"source":"CELESTRAK","updated_at":"2026-09-20T09:00:40.062764Z"}}}